{"data":{"norad_id":60117,"epoch":"2026-09-21T22:16:49.147104Z","epoch_age_seconds":58385,"freshness":"FRESH","line1":"1 60117U 24118E   26264.92834661 -.00003634  00000+0 -25171-4 0  9997","line2":"2 60117  53.1596 333.9628 0001011  69.2839 290.8287 15.69690145128812","mean_motion":15.69690145,"eccentricity":0.0001011,"inclination_deg":53.1596,"raan_deg":333.9628,"arg_perigee_deg":69.2839,"mean_anomaly_deg":290.8287,"bstar":-2.5171e-5,"rev_number":12881,"period_min":91.737850593437,"perigee_km":359.10236465912,"apogee_km":360.46477219806,"semimajor_km":6737.9205684286,"source":"CELESTRAK","updated_at":"2026-09-22T09:00:49.155285Z"}}